Time,TemperatureF,DewpointF,PressureIn,WindDirection,WindDirectionDegrees,WindSpeedMPH,WindSpeedGustMPH,Humidity,HourlyPrecipIn,Conditions,Clouds,dailyrainin,SoftwareType,DateUTC
2013-05-14 00:00:00,61.0,29.0,-100.00,SW,233,3.0,8.0,29,-99.99,,,-99.99,,2013-05-14 06:00:00,
2013-05-14 00:42:00,61.0,29.0,-100.00,SW,233,3.0,8.0,29,-99.99,,,-99.99,,2013-05-14 06:42:00,
2013-05-14 00:52:00,61.0,29.0,-100.00,SW,233,3.0,8.0,29,-99.99,,,-99.99,,2013-05-14 06:52:00,
2013-05-14 02:00:00,59.0,28.0,-100.00,WNW,293,1.0,6.0,31,-99.99,,,0.00,,2013-05-14 08:00:00,
2013-05-14 03:00:00,51.0,28.0,-100.00,SE,125,1.0,3.0,41,-99.99,,,-99.99,,2013-05-14 09:00:00,
2013-05-14 04:00:00,55.0,31.0,-100.00,ENE,64,1.0,5.0,40,-99.99,,,-99.99,,2013-05-14 10:00:00,
2013-05-14 04:52:00,55.0,31.0,-100.00,ENE,64,1.0,5.0,40,-99.99,,,-99.99,,2013-05-14 10:52:00,
2013-05-14 05:00:00,44.0,31.0,-100.00,East,81,1.0,4.0,61,-99.99,,,-99.99,,2013-05-14 11:00:00,
2013-05-14 06:00:00,41.0,35.0,-100.00,ENE,73,0.0,3.0,79,-99.99,,,-99.99,,2013-05-14 12:00:00,
2013-05-14 07:00:00,44.0,39.0,-100.00,SE,128,1.0,2.0,85,-99.99,,,-99.99,,2013-05-14 13:00:00,
2013-05-14 08:00:00,58.0,42.0,-100.00,SE,143,1.0,3.0,55,-99.99,,,-99.99,,2013-05-14 14:00:00,
2013-05-14 09:00:00,60.0,31.0,-100.00,WNW,301,1.0,5.0,33,-99.99,,,-99.99,,2013-05-14 15:00:00,
2013-05-14 10:00:00,60.0,33.0,-100.00,NNE,14,2.0,5.0,37,-99.99,,,-99.99,,2013-05-14 16:00:00,
2013-05-14 11:00:00,64.0,30.0,-100.00,NNW,334,2.0,6.0,27,-99.99,,,-99.99,,2013-05-14 17:00:00,
2013-05-14 12:00:00,67.0,27.0,-100.00,NNW,344,2.0,5.0,22,-99.99,,,-99.99,,2013-05-14 18:00:00,
2013-05-14 13:00:00,68.0,28.0,-100.00,NNW,346,2.0,12.0,22,-99.99,,,-99.99,,2013-05-14 19:00:00,
2013-05-14 13:52:00,68.0,28.0,-100.00,NNW,346,2.0,12.0,22,-99.99,,,-99.99,,2013-05-14 19:52:00,
2013-05-14 14:00:00,64.0,38.0,-100.00,North,351,2.0,5.0,38,-99.99,,,0.00,,2013-05-14 20:00:00,
2013-05-14 15:00:00,65.0,45.0,-100.00,NNE,23,2.0,6.0,47,-99.99,,,-99.99,,2013-05-14 21:00:00,
2013-05-14 16:00:00,70.0,38.0,-100.00,North,353,2.0,6.0,31,-99.99,,,-99.99,,2013-05-14 22:00:00,
2013-05-14 17:00:00,63.0,35.0,-100.00,North,2,2.0,7.0,34,-99.99,,,0.00,,2013-05-14 23:00:00,
2013-05-14 18:00:00,60.0,43.0,-100.00,NNW,337,1.0,4.0,53,-99.99,,,-99.99,,2013-05-15 00:00:00,
2013-05-14 18:42:00,60.0,43.0,-100.00,NNW,337,1.0,4.0,53,-99.99,,,-99.99,,2013-05-15 00:42:00,
2013-05-14 18:52:00,60.0,43.0,-100.00,NNW,337,1.0,4.0,53,-99.99,,,-99.99,,2013-05-15 00:52:00,
2013-05-14 19:00:00,57.0,45.0,-100.00,NNE,20,1.0,3.0,63,-99.99,,,-99.99,,2013-05-15 01:00:00,
2013-05-14 19:42:00,57.0,45.0,-100.00,NNE,20,1.0,3.0,63,-99.99,,,-99.99,,2013-05-15 01:42:00,
2013-05-14 19:52:00,57.0,45.0,-100.00,NNE,20,1.0,3.0,63,-99.99,,,-99.99,,2013-05-15 01:52:00,
2013-05-14 20:00:00,55.0,44.0,-100.00,NNE,25,0.0,2.0,67,-99.99,,,-99.99,,2013-05-15 02:00:00,
2013-05-14 21:00:00,52.0,44.0,-100.00,WSW,242,0.0,2.0,74,-99.99,,,-99.99,,2013-05-15 03:00:00,
2013-05-14 22:00:00,51.0,43.0,-100.00,SW,235,0.0,1.0,76,-99.99,,,-99.99,,2013-05-15 04:00:00,
2013-05-14 23:00:00,47.0,41.0,-100.00,West,267,0.0,1.0,78,-99.99,,,0.00,,2013-05-15 05:00:00,